Погода Сосуново

Погода Сосуново : погода сейчас, прогноз погоды и архив. Всё, что Вы хотите узнать о погоде Сосуново!

Хотите узнать прогноз погоды Сосуново? Тогда Вам сюда: Погода Сосуново

Поиск расширенной информации на нашем сайте:

Другие новости

Новости СМИ2

Главная страница сайта

Новости сайта

02.10.2013

Напоминаем, что на нашем новом сайте вы можете получить высокодетализированные прогнозы погоды по пунктам России, СНГ и мира (включающие важные для авиации метеовеличины, такие как направление и скорость ветра, видимость, явления погоды, количество и форма облачности, нижняя и верхняя граница облачности), а также ознакомиться с разнообразными материалами по авиационной метеорологии и подборкой полезных ссылок на эту тему.

Сайт Метеоцентр.Азия посвящён разработке технологий оптимизации авиаметеорологического обслуживания, включая проектирование и перспективное создание нескольких автоматизированных авиаметеорологических систем:
- система выпуска высокодетальных прогностических карт явлений погоды для нижнего воздушного пространства по России и ближнему зарубежью;
- система верификации прогнозов TAF (выпускаемых синоптиками официальных АМСГ РФ и ближнего зарубежья) и AUTOTAF (выпускаемых сайтом Метеоцентр.Азия) - выявление ошибок, онлайн-сопоставление с фактической погодой METAR, автоматическое внесение коррективов в прогнозы при резком отклонении фактической погоды от прогноза, подсчёт оправдываемости прогнозов по элементам и в целом;
- система обработки, анализа и отображения авиаметеорологической информации для применения провайдерами метеорологической информации.

Рекомендуем: Смотрите редуксин купить на сайте.

Погода Сосуново - сегодня

Время (UTC), дата Ветер
(°,м/с) 
Видим.   Явления Облачность Т
(°С)
Тd
(°С)
f(%) Тe
(°С)
Pmin
(гПа)
dP
(гПа)
Po
(мм)
O2
(г/м3)
Тmin Tmax R s Состояние
почвы
06 20.03.17 200 (Ю) 20000 м    ясно 
+3 -3.6 62 +1  1016.3  -1.6  762  304           
09 20.03.17 210 (ЮЗ) 7{11}  20000 м    ясно 
+0.7 -3.2 75 -3  1014.9  -1.4  761  306    +3.6       
12 20.03.17 210 (ЮЗ) 20000 м    ясно 
-1.3 -6.4 68 -3  1014.3  -0.6  760  309           
15 20.03.17 230 (ЮЗ) 20000 м    ясно 
-4.6 -7.8 78 -6  1013.6  -0.8  760  312           
18 20.03.17 280 (З) 20000 м    4/4 600 м 
[Sc]
-2.4 -5.2 81 -2  1012.6  -1  759  309           
21 20.03.17 010 (С) 10 км    10/10 600 м 
[Sc]
-0.6 -3.8 79 -3  1011.3  -1.3  758  307  -5.5      мокрый или
старый снег
10-40% 
00 21.03.17 020 (С) 7-10{11}  2000 м  ливневой снег  10/10 600 м кучево-дожд. 
[Cb cap]
-1.2 -2.3 92 -5  1010  -1.3  757  307           
03 21.03.17 020 (С) 10-15{17}  2000 м  снег{ливн. осадки}  10/0 средняя 
[As op]
-1.3 -2.1 94 -6  1008.9  -1.1  756  306           
06 21.03.17 020 (С) 10-14{17}  2000 м  снег{ливн. осадки}  10/0 средняя 
[As op]
-1.4 -2.4 93 -7  1008.4  -0.4  756  306           
09 21.03.17 020 (С) 8-13{15}  2000 м  снег  10/0 средняя 
[As op]
-2.2 -3 94 -7  1009.2  0.8  757  308    -0.6     
12 21.03.17 360 (С) 5{14}  2000 м  снег  10/0 средняя 
[As op]
-3 -4.4 90 -7  1009.7  0.5  757  309           
15 21.03.17 330 (СЗ) 4{13}  4000 м  слаб. снег  10/0 средняя 
[As op]
-2.8 -5.2 84 -6  1009.2  -0.5  757  309           
18 21.03.17 340 (С) 3{10}  4000 м  слаб. снег  10/0 средняя 
[As op]
-2.7 -5.8 79 -5  1008.4  -0.7  756  308           
21 21.03.17 340 (С) 10 км  слаб. снег  10/0 средняя 
[As op]
-2.3 -6.5 73 -5  1009.1  0.6  757  308  -3.3    неравномерный
сухой снег
100% 
00 22.03.17 340 (С) 4000 м  слаб. снег  10/0 средняя 
[As op]
-2.2 -4.6 84 -5  1009.7  0.6  757  308           
03 22.03.17 030 (СВ) 4000 м  слаб. снег  10/0 средняя 
[As op]
-2.1 -3.6 89 -6  1010.6  0.9  758  308           
06 22.03.17 020 (С) 4000 м  слаб. снег  10/0 средняя 
[As op]
-2.6 -4.1 89 -7  1011.5  0.9  758  309           
09 22.03.17 360 (С) 3{11}  4000 м  слаб. снег  10/0 средняя 
[As op]
-2.7 -5 84 -5  1013.3  1.8  760  310    -1.9  0.4     
12 22.03.17 350 (С) 2000 м  снег  10/0 средняя 
[As op]
-2.9 -4.4 89 -5  1014.7  1.4  761  310           
15 22.03.17 300 (СЗ) 10 км  в посл. час снег  10/0 средняя 
[As op]
-4.2 -6.5 84 -5  1015.1  0.4  761  312           
18 22.03.17 220 (ЮЗ) 10 км  {снег}  10/0 средняя 
[As op]
-5.5 -7.4 86 -7  1014.9  -0.2  761  314           
21 22.03.17 220 (ЮЗ) 10 км  слаб. снег  10/0 средняя 
[As op]
-5.2 -6.7 89 -7  1015.3  0.4  761  313  -5.7    0.5  11  неравномерный
сухой снег
100% 
00 23.03.17 тихо ()   20000 м  в посл. час ливневой снег  9/9 600 м кучево-дожд. 
[Cb cap]
-1.6 -5 78 -2  1015.7  0.4  761  309           
03 23.03.17 100 (В) 20000 м    8/1 600 м верхняя 
[Cu hum|Ci fib]
+0 -8.1 54 +1  1015.1  -0.6  761  307           
06 23.03.17 210 (ЮЗ) 20000 м    10/3 600 м кучево-дожд., верхняя 
[Cb cap|Ci fib]
-0.7 -6 67 -3  1014.7  -0.4  761  308           
Время (UTC), дата Ветер
(°,м/с) 
Видим.   Явления Облачность Т
(°С)
Тd
(°С)
f(%) Тe
(°С)
Pmin
(гПа)
dP
(гПа)
Po
(мм)
O2
(г/м3)
Тmin Tmax R s Состояние
почвы

Для получения пояснительной информации подведите курсор к названию столбца.

ПОГОДА Сосуново - архив

Всё, что Вы хотите узнать о погоде Сосуново - удобно и подробно!

Выберите нужную дату (начиная с 1 января 2015* года) и нажмите кнопку "Найти".
Будут отображены архивные сводки погоды по пункту Сосуново, начиная с указанной даты.


Отображать данные в формате CSV (для использования в таблицах Excel)


Внимание! Наш архив погоды предназначен исключительно для личного некоммерческого использования в познавательных целях. Если Вам необходимы официальные справки о состоянии погоды (для производственных, юридических, коммерческих и т.п. целей), обращайтесь в органы Росгидромета.

*Примечание: данная дата относится к архиву по метеостанциям СССР (Россия, СНГ, Балтия).
Архив по метеостанциям Зарубежной Европы и Азии (кроме Китая) хранится 10 дней, по другим регионам земного шара (Китай, Африка, Америка, Австралия, Океания) - 1 день.

Сосуново - район местоположения метеостанции


Название, широта, долгота, высота метеостанции:
Сосуново 46.5°ш. 138.3°д. 4 м над ур. моря [Российская Федерация]

Дополнительная информация

В oтличие oт бoльшинства пoгoдных сайтoв мы публикуем пoдрoбную метеoинфoрмацию в детальнoм прoфессиoнальнoм фoрмате.

Характеристики температуры и влажнoсти вoздуха измеряются на высoте 2 м в тени вдали oт зданий и деревьев.
Скoрoсть ветра измеряется на высoте 10 м (на урoвне рoста челoвека скoрoсть ветра ниже в 1.5-2 раза). Если метеoстанция нахoдится в гoрoде или в лесу, тo скoрoсть ветра занижена на 2-4 м/с пo сравнению с oткрытым местoм. Скoрoсть ветра над акватoриями крупных рек и oзёр, а также на вершинах хoлмoв на 2-5 м/с выше, чем в oбычных услoвиях.
Атмoсфернoе давление в разных тoчках местнoсти мoжет значительнo oтличаться oт давления на метеoстанции, в зависимoсти oт услoвий рельефа (при пoдъёме на 10 м давление пoнижается примернo на 1 мм рт.ст.).